Location: Unspecified
(0.0000°N, 0.0000°E)
Time: 06:20:54
(UTC+00:00)

Eole - Pass Details

Date: 24 May 2026
Orbit: 620 x 764 km, 50.1° (Epoch: 8 June)

Event Time Altitude Azimuth Distance (km) Brightness Sun altitude
Rises 20:26:40 0° 255° (WSW) 3,083 10.8 -34.6°
Reaches altitude 10° 20:30:48 10° 288° (WNW) 2,120 10.1 -35.5°
Maximum altitude 20:32:25 11° 307° (NW) 2,003 9.9 -35.9°
Drops below altitude 10° 20:34:00 10° 327° (NNW) 2,086 9.8 -36.3°
Sets 20:37:59 0° 0° (N) 2,956 10.3 -37.1°
